Location: Chequamegon National Forest
(46.1070°N, 90.8420°W)
Time: 18:56:46
(UTC-05:00)

Amateur Radio Satellites - All Passes

Search period start: 21 October 2014 18:26
Search period end: 22 October 2014 18:26
Location: Chequamegon National Forest, 46.1070°N, 90.8420°W

Satellite Date Start Highest point End Downlink Frequencies (MHz)
Time Altitude Azimuth
HO-68 21 Oct 18:27:20 18:28:02 10° 40° (NE) 18:28:45 435.675 MHz FM
Hamsat 21 Oct 18:31:35 18:35:35 42° 262° (W) 18:39:36 145.90 MHz
UOSAT-12 21 Oct 18:35:44 18:38:22 15° 333° (NNW) 18:41:01 437.025 FM, 437.400 FM
KITSAT 1 21 Oct 18:41:11 18:46:36 19° 10° (N) 18:52:02 435.175 FM
Saudisat 1A 21 Oct 18:47:34 18:50:23 17° 249° (WSW) 18:53:11 436.775 MHz
SO-67 21 Oct 19:05:32 19:08:56 61° 75° (ENE) 19:12:21 435.3500 MHz FM
ISS 21 Oct 19:27:36 19:30:55 55° 21° (NNE) 19:34:12 145.800 FM
STRAND 1 21 Oct 19:37:21 19:42:20 46° 99° (E) 19:47:16 ?
OPAL 21 Oct 19:38:08 19:42:23 29° 299° (WNW) 19:46:34 ?
JAS-2 21 Oct 19:55:16 19:56:11 10° 281° (W) 19:57:07 435.800 - 435.900 CW/SSB, 435.910 FM
HO-68 21 Oct 20:07:17 20:13:53 42° 62° (ENE) 20:20:32 435.675 MHz FM
SO-50 21 Oct 20:18:17 20:20:34 13° 24° (NNE) 20:22:51 436.795 FM
Oscar 11 21 Oct 20:35:43 20:38:13 15° 61° (ENE) 20:40:43 145.825 FM, Beacon 2401.500 USB
KITSAT 1 21 Oct 20:37:20 20:44:44 37° 38° (NE) 20:52:05 435.175 FM
ISS 21 Oct 21:04:32 21:07:29 29° 219° (SW) 21:10:25 145.800 FM
ZACube-1 21 Oct 21:14:28 21:17:33 18° 62° (ENE) 21:20:36 437.345 MHz
STRAND 1 21 Oct 21:17:02 21:21:17 27° 297° (WNW) 21:25:31 ?
UKube-1 21 Oct 21:24:57 21:29:10 52° 71° (ENE) 21:33:25 145.840 MHz, 145.915 MHz
HO-68 21 Oct 21:54:48 22:01:34 44° 261° (W) 22:08:23 435.675 MHz FM
SO-50 21 Oct 21:57:42 22:02:20 44° 46° (NE) 22:07:00 436.795 FM
FUNcube-1 21 Oct 21:58:30 22:02:52 44° 71° (ENE) 22:07:11 145.950 - 145.970 MHz USB
UOSAT-12 21 Oct 22:00:58 22:03:04 13° 23° (NNE) 22:05:09 437.025 FM, 437.400 FM
Oscar 11 21 Oct 22:09:37 22:13:55 64° 259° (WSW) 22:18:14 145.825 FM, Beacon 2401.500 USB
RS-15 21 Oct 22:26:38 22:36:36 42° 110° (ESE) 22:46:29 29.354 - 29.394 USB, Beacon 29.352 USB
KITSAT 1 21 Oct 22:32:44 22:40:46 71° 241° (WSW) 22:48:45 435.175 FM
ZACube-1 21 Oct 22:48:59 22:53:31 59° 259° (W) 22:58:02 437.345 MHz
UKube-1 21 Oct 23:02:49 23:05:40 17° 268° (W) 23:08:32 145.840 MHz, 145.915 MHz
FUNcube-1 21 Oct 23:35:53 23:39:25 22° 267° (W) 23:42:56 145.950 - 145.970 MHz USB
SO-50 21 Oct 23:38:33 23:42:46 30° 245° (WSW) 23:47:00 436.795 FM
UOSAT-12 21 Oct 23:39:56 23:44:28 42° 45° (NE) 23:48:55 437.025 FM, 437.400 FM
MaSat-1 22 Oct 00:09:15 00:12:26 21° 109° (ESE) 00:15:25 437.345 MHz
KITSAT 1 22 Oct 00:30:36 00:34:42 15° 261° (W) 00:38:48 435.175 FM
RS-15 22 Oct 00:37:34 00:48:26 65° 314° (NW) 00:59:23 29.354 - 29.394 USB, Beacon 29.352 USB
UOSAT-12 22 Oct 01:20:22 01:24:29 30° 245° (WSW) 01:28:31 437.025 FM, 437.400 FM
MaSat-1 22 Oct 01:44:06 01:48:01 40° 303° (WNW) 01:51:34 437.345 MHz
JAS-1B 22 Oct 01:46:09 01:51:28 25° 94° (E) 01:57:27 435.800 - 435.900 CW/SSB
Oscar 19 22 Oct 01:50:10 01:54:23 25° 93° (E) 01:58:34 437.125 CW, 437.150 USB
AO-27 22 Oct 02:00:59 02:03:33 14° 88° (E) 02:06:07 436.795 MHz FM
Oscar 16 22 Oct 02:34:49 02:39:56 64° 102° (ESE) 02:45:00 437.025 USB, Beacon 2401.1428
Uribyol 2 22 Oct 02:48:43 02:53:35 38° 97° (E) 02:58:23 436.500 FM
ITAMSAT 1 22 Oct 02:53:52 02:58:47 39° 98° (E) 03:03:40 435.822 SSB
RS-15 22 Oct 02:53:56 03:03:21 32° 345° (NNW) 03:12:57 29.354 - 29.394 USB, Beacon 29.352 USB
Gurwin Techsat 1B 22 Oct 02:55:20 02:59:31 23° 92° (E) 03:03:41 435.225 FM
AO-Echo 22 Oct 02:55:33 03:00:46 54° 100° (E) 03:05:58 ?
TMSAT-1 22 Oct 03:08:42 03:12:51 23° 92° (E) 03:16:58 436.925 FM
Oscar 19 22 Oct 03:29:03 03:33:56 45° 291° (WNW) 03:38:46 437.125 CW, 437.150 USB
AO-7 22 Oct 03:35:02 03:38:28 13° 84° (E) 03:41:54 29.400 - 29.500 MHz
JAS-1B 22 Oct 03:36:11 03:42:25 64° 289° (WNW) 03:49:49 435.800 - 435.900 CW/SSB
AO-27 22 Oct 03:38:29 03:43:45 85° 286° (WNW) 03:48:59 436.795 MHz FM
OPAL 22 Oct 03:39:59 03:43:06 16° 55° (NE) 03:46:11 ?
Sapphire 22 Oct 04:14:47 04:19:12 26° 109° (ESE) 04:23:38 437.095 MHz 1200 baud AX-25 AFSK
Oscar 16 22 Oct 04:15:11 04:18:48 20° 300° (WNW) 04:22:25 437.025 USB, Beacon 2401.1428
Uribyol 2 22 Oct 04:28:22 04:32:58 32° 295° (WNW) 04:37:31 436.500 FM
ITAMSAT 1 22 Oct 04:33:37 04:38:10 31° 296° (WNW) 04:42:41 435.822 SSB
Gurwin Techsat 1B 22 Oct 04:34:37 04:39:47 53° 290° (WNW) 04:44:56 435.225 FM
AO-Echo 22 Oct 04:35:00 04:39:10 24° 298° (WNW) 04:43:21 ?
PCSat 22 Oct 04:36:51 04:41:55 42° 114° (ESE) 04:47:02 145.825 MHz
Uosat F 22 Oct 04:38:26 04:42:22 22° 93° (E) 04:46:16 435.120 FM
TMSAT-1 22 Oct 04:47:55 04:53:05 53° 290° (WNW) 04:58:13 436.925 FM
RS-15 22 Oct 05:10:11 05:19:53 34° 20° (NNE) 05:29:50 29.354 - 29.394 USB, Beacon 29.352 USB
JAS-2 22 Oct 05:10:17 05:15:47 21° 87° (E) 05:21:20 435.800 - 435.900 CW/SSB, 435.910 FM
OPAL 22 Oct 05:16:10 05:21:21 84° 253° (WSW) 05:26:29 ?
AO-27 22 Oct 05:19:48 05:22:28 14° 305° (NW) 05:25:08 436.795 MHz FM
STRAND 1 22 Oct 05:19:54 05:22:27 14° 56° (NE) 05:25:00 ?
AO-7 22 Oct 05:24:35 05:32:53 65° 105° (ESE) 05:41:08 29.400 - 29.500 MHz
JAS-1B 22 Oct 05:29:31 05:32:08 13° 308° (NW) 05:34:52 435.800 - 435.900 CW/SSB
Sapphire 22 Oct 05:57:00 06:02:18 54° 308° (NW) 06:07:38 437.095 MHz 1200 baud AX-25 AFSK
Hamsat 22 Oct 06:14:43 06:18:18 27° 95° (E) 06:21:52 145.90 MHz
Uosat F 22 Oct 06:16:32 06:21:26 50° 291° (WNW) 06:26:17 435.120 FM
PCSat 22 Oct 06:20:27 06:25:26 36° 314° (NW) 06:30:26 145.825 MHz
JAS-2 22 Oct 06:53:56 07:01:39 89° 105° (ESE) 07:09:32 435.800 - 435.900 CW/SSB, 435.910 FM
STRAND 1 22 Oct 06:55:44 07:00:52 85° 74° (ENE) 07:06:03 ?
OPAL 22 Oct 06:59:21 07:00:57 11° 271° (W) 07:02:34 ?
AO-7 22 Oct 07:17:59 07:25:12 35° 305° (NW) 07:32:26 29.400 - 29.500 MHz
RS-15 22 Oct 07:23:23 07:34:31 72° 49° (NE) 07:46:05 29.354 - 29.394 USB, Beacon 29.352 USB
Sapphire 22 Oct 07:44:01 07:47:00 15° 331° (NNW) 07:50:00 437.095 MHz 1200 baud AX-25 AFSK
Hamsat 22 Oct 07:50:35 07:54:15 30° 292° (WNW) 07:57:54 145.90 MHz
SO-67 22 Oct 07:59:10 08:02:33 50° 99° (E) 08:05:55 435.3500 MHz FM
PCSat 22 Oct 08:08:51 08:10:32 11° 337° (NNW) 08:12:13 145.825 MHz
STRAND 1 22 Oct 08:38:20 08:40:44 13° 272° (W) 08:43:08 ?
JAS-2 22 Oct 08:40:03 08:45:48 24° 304° (NW) 08:51:44 435.800 - 435.900 CW/SSB, 435.910 FM
Saudisat 1A 22 Oct 08:54:34 08:58:56 68° 123° (ESE) 09:03:19 436.775 MHz
HO-68 22 Oct 09:19:25 09:25:48 33° 95° (E) 09:32:07 435.675 MHz FM
SO-67 22 Oct 09:33:43 09:35:07 12° 297° (WNW) 09:36:32 435.3500 MHz FM
RS-15 22 Oct 09:36:21 09:46:10 38° 252° (WSW) 09:56:22 29.354 - 29.394 USB, Beacon 29.352 USB
MaSat-1 22 Oct 09:52:41 09:55:26 61° 59° (ENE) 09:57:55 437.345 MHz
Oscar 11 22 Oct 09:55:28 09:58:34 19° 92° (E) 10:01:40 145.825 FM, Beacon 2401.500 USB
Saudisat 1A 22 Oct 10:35:31 10:38:56 22° 323° (NW) 10:42:22 436.775 MHz
ZACube-1 22 Oct 10:36:28 10:39:50 22° 93° (E) 10:43:08 437.345 MHz
UKube-1 22 Oct 10:46:30 10:50:53 68° 103° (ESE) 10:55:14 145.840 MHz, 145.915 MHz
HO-68 22 Oct 11:06:49 11:13:48 55° 294° (WNW) 11:20:45 435.675 MHz FM
KITSAT 1 22 Oct 11:14:53 11:17:16 12° 96° (E) 11:19:39 435.175 FM
Sapphire 22 Oct 11:17:12 11:19:19 12° 25° (NNE) 11:21:26 437.095 MHz 1200 baud AX-25 AFSK
FUNcube-1 22 Oct 11:21:18 11:25:36 65° 101° (E) 11:29:46 145.950 - 145.970 MHz USB
Oscar 11 22 Oct 11:30:52 11:34:59 44° 289° (WNW) 11:39:04 145.825 FM, Beacon 2401.500 USB
PCSat 22 Oct 11:39:31 11:42:48 16° 31° (NNE) 11:46:04 145.825 MHz
ZACube-1 22 Oct 12:12:24 12:16:23 37° 291° (WNW) 12:20:16 437.345 MHz
Oscar 16 22 Oct 12:17:13 12:20:42 19° 59° (ENE) 12:24:10 437.025 USB, Beacon 2401.1428
UKube-1 22 Oct 12:24:05 12:26:33 15° 300° (WNW) 12:29:01 145.840 MHz, 145.915 MHz
Uribyol 2 22 Oct 12:33:33 12:35:36 12° 54° (NE) 12:37:38 436.500 FM
AO-Echo 22 Oct 12:35:38 12:37:59 14° 56° (NE) 12:40:22 ?
JAS-1B 22 Oct 12:36:22 12:40:57 24° 60° (ENE) 12:45:24 435.800 - 435.900 CW/SSB
ITAMSAT 1 22 Oct 12:38:38 12:40:53 13° 54° (NE) 12:43:07 435.822 SSB
HO-68 22 Oct 12:56:47 12:59:59 14° 316° (NW) 13:03:11 435.675 MHz FM
FUNcube-1 22 Oct 12:59:05 13:01:28 15° 300° (WNW) 13:03:48 145.950 - 145.970 MHz USB
Sapphire 22 Oct 12:59:11 13:04:19 40° 48° (NE) 13:09:24 437.095 MHz 1200 baud AX-25 AFSK
KITSAT 1 22 Oct 13:03:05 13:10:58 60° 116° (ESE) 13:18:53 435.175 FM
Oscar 19 22 Oct 13:09:19 13:14:14 47° 69° (ENE) 13:19:10 437.125 CW, 437.150 USB
AO-27 22 Oct 13:20:52 13:25:15 28° 63° (ENE) 13:29:40 436.795 MHz FM
PCSat 22 Oct 13:21:58 13:27:22 60° 53° (NE) 13:32:44 145.825 MHz
ISS 22 Oct 13:48:17 13:51:00 23° 138° (SE) 13:53:43 145.800 FM
Oscar 16 22 Oct 13:54:21 13:59:31 70° 257° (WSW) 14:04:41 437.025 USB, Beacon 2401.1428
SO-50 22 Oct 13:55:12 13:59:32 50° 120° (ESE) 14:04:02 436.795 FM
Oscar 10/S400 22 Oct 13:55:46 14:11:37 29° 150° (SSE) 14:31:17 145.825 - 145.975 CW/USB, Beacon 145.810 USB
Uribyol 2 22 Oct 14:08:58 14:14:10 73° 73° (ENE) 14:19:24 436.500 FM
AO-Echo 22 Oct 14:11:04 14:15:56 87° 75° (ENE) 14:21:01 ?
ITAMSAT 1 22 Oct 14:14:18 14:19:30 77° 73° (ENE) 14:24:45 435.822 SSB
Gurwin Techsat 1B 22 Oct 14:18:41 14:23:43 46° 68° (ENE) 14:28:47 435.225 FM
JAS-1B 22 Oct 14:25:28 14:31:22 54° 259° (W) 14:36:56 435.800 - 435.900 CW/SSB
TMSAT-1 22 Oct 14:31:42 14:36:43 45° 68° (ENE) 14:41:45 436.925 FM
AO-7 22 Oct 14:35:49 14:42:29 28° 51° (NE) 14:49:10 29.400 - 29.500 MHz
Sapphire 22 Oct 14:42:45 14:47:43 37° 248° (WSW) 14:52:40 437.095 MHz 1200 baud AX-25 AFSK
Oscar 19 22 Oct 14:49:38 14:53:48 24° 267° (W) 14:57:59 437.125 CW, 437.150 USB
KITSAT 1 22 Oct 14:59:10 15:06:44 42° 319° (NW) 15:14:21 435.175 FM
AO-27 22 Oct 14:59:37 15:04:34 44° 261° (W) 15:09:34 436.795 MHz FM
PCSat 22 Oct 15:06:11 15:10:22 23° 252° (WSW) 15:14:31 145.825 MHz
ISS 22 Oct 15:24:08 15:27:28 65° 336° (NNW) 15:30:48 145.800 FM
JAS-2 22 Oct 15:29:41 15:31:20 11° 44° (NE) 15:33:02 435.800 - 435.900 CW/SSB, 435.910 FM
UOSAT-12 22 Oct 15:33:09 15:37:34 45° 119° (ESE) 15:42:05 437.025 FM, 437.400 FM
SO-50 22 Oct 15:36:24 15:40:20 28° 321° (NW) 15:44:23 436.795 FM
Saudisat 1A 22 Oct 15:39:59 15:43:23 21° 36° (NE) 15:46:45 436.775 MHz
Uribyol 2 22 Oct 15:51:02 15:54:12 16° 271° (W) 15:57:23 436.500 FM
AO-Echo 22 Oct 15:53:34 15:55:28 12° 274° (W) 15:57:24 ?
Uosat F 22 Oct 15:53:55 15:58:35 40° 67° (ENE) 16:03:17 435.120 FM
ITAMSAT 1 22 Oct 15:56:36 15:59:35 15° 271° (W) 16:02:36 435.822 SSB
Gurwin Techsat 1B 22 Oct 15:59:28 16:03:53 26° 266° (W) 16:08:20 435.225 FM
TMSAT-1 22 Oct 16:12:21 16:16:48 27° 266° (W) 16:21:18 436.925 FM
AO-7 22 Oct 16:26:12 16:34:29 81° 252° (WSW) 16:42:50 29.400 - 29.500 MHz
KITSAT 1 22 Oct 16:59:02 17:04:38 20° 347° (NNW) 17:10:15 435.175 FM
ISS 22 Oct 17:01:31 17:04:33 31° 356° (N) 17:07:35 145.800 FM
JAS-2 22 Oct 17:08:58 17:14:40 51° 67° (ENE) 17:21:09 435.800 - 435.900 CW/SSB, 435.910 FM
Hamsat 22 Oct 17:10:34 17:14:07 27° 67° (ENE) 17:17:40 145.90 MHz
UOSAT-12 22 Oct 17:13:44 17:17:53 31° 319° (NW) 17:22:07 437.025 FM, 437.400 FM
Saudisat 1A 22 Oct 17:18:59 17:23:25 72° 236° (SW) 17:27:48 436.775 MHz
OPAL 22 Oct 17:24:31 17:28:07 20° 94° (E) 17:31:40 ?
Uosat F 22 Oct 17:33:12 17:37:29 28° 265° (W) 17:41:48 435.120 FM
